�N����,����,����,����,����,�C��,���x,�~����,�S�V����,�ő�u�ԕ���,,,,,
,,,,,,,,,����,����,����,�N��,,
yyyy/mm/dd,hh:mm:ss,(16),16����,m/s,��,%,mm,KW/�u,(16),16����,m/s,Time,,
2018/6/1,1:00:00,12,��,0.9,12,95.4,0,0,13,���k��,1.7,46,,
2018/6/1,2:00:00,1,�k�k��,0.4,11.8,95.5,0,0,13,���k��,1.9,18,,
2018/6/1,3:00:00,14,�k��,1.7,13.3,95.6,0,0,16,�k,3.3,25,,
2018/6/1,4:00:00,15,�k�k��,1.2,13,87,0,0,16,�k,3.8,11,,
2018/6/1,5:00:00,14,�k��,1.2,12.6,85,0,0.01,16,�k,3.8,13,,
2018/6/1,6:00:00,14,�k��,1.3,12.5,82.8,0,0.04,16,�k,3.4,12,,
2018/6/1,7:00:00,16,�k,1.6,12.4,81.6,0,0.05,16,�k,2.8,53,,
2018/6/1,8:00:00,16,�k,0.8,13.1,78.8,0,0.11,14,�k��,3.9,13,,
2018/6/1,9:00:00,1,�k�k��,2,13.5,71,0,0.26,1,�k�k��,3.8,27,,
2018/6/1,10:00:00,5,���쓌,2.5,12,79.1,0,0.18,4,��,3.9,27,,
2018/6/1,11:00:00,7,��쓌,2,12.2,77.2,0,0.27,5,���쓌,3.6,11,,
2018/6/1,12:00:00,5,���쓌,2.5,11.8,77.6,0,0.32,6,�쓌,4.3,37,,
2018/6/1,13:00:00,5,���쓌,2.1,12.3,71.3,0,0.4,5,���쓌,4.4,4,,
2018/6/1,14:00:00,8,��,1.5,12.5,67,0,0.25,5,���쓌,3.1,10,,
2018/6/1,15:00:00,10,�쐼,1.5,12.2,68.6,0,0.22,10,�쐼,3.6,34,,
2018/6/1,16:00:00,9,��쐼,1.6,11.6,70.1,0,0.09,8,��,2.7,58,,
2018/6/1,17:00:00,8,��,1.1,11.3,72.2,0,0.05,10,�쐼,3.3,2,,
2018/6/1,18:00:00,8,��,2.5,11.2,79.2,0,0.08,9,��쐼,6.1,59,,
2018/6/1,19:00:00,8,��,2.1,9.8,84.5,0,0.03,9,��쐼,5.1,27,,
2018/6/1,20:00:00,8,��,2.2,10.1,90.3,0,0,8,��,5.6,57,,
2018/6/1,21:00:00,7,��쓌,2.7,9.9,78.8,0,0,7,��쓌,7.6,13,,
2018/6/1,22:00:00,7,��쓌,2,10.2,73.3,0,0,6,�쓌,6,9,,
2018/6/1,23:00:00,6,�쓌,0.9,8.7,80.1,0,0,6,�쓌,3.9,14,,
2018/6/1,0:00:00,13,���k��,1.6,4.7,84,0,0,13,���k��,2.5,34,,
2018/6/2,1:00:00,14,�k��,1.8,5.6,91,0,0,15,�k�k��,3.8,59,,
2018/6/2,2:00:00,14,�k��,1.6,6.1,93.8,0,0,14,�k��,4.2,4,,
2018/6/2,3:00:00,14,�k��,0.7,5.3,93.8,0,0,9,��쐼,4.2,9,,
2018/6/2,4:00:00,10,�쐼,0.9,2.3,90.2,0,0,10,�쐼,2.9,34,,
2018/6/2,5:00:00,13,���k��,0.5,5.9,93.8,0,0.06,11,���쐼,2.3,28,,
2018/6/2,6:00:00,13,���k��,1.3,8.9,97.5,0,0.14,13,���k��,2.8,41,,
2018/6/2,7:00:00,12,��,0.7,10.7,95.4,0,0.25,11,���쐼,2.4,8,,
2018/6/2,8:00:00,7,��쓌,0.8,14.9,65.3,0,0.56,13,���k��,7.2,5,,
2018/6/2,9:00:00,7,��쓌,1.8,15.5,66,0,0.8,6,�쓌,3.7,31,,
2018/6/2,10:00:00,6,�쓌,2.9,14.6,62.4,0,0.8,7,��쓌,4.7,9,,
2018/6/2,11:00:00,6,�쓌,1.2,15.9,64.3,0,0.89,6,�쓌,4.1,20,,
2018/6/2,12:00:00,5,���쓌,2.1,20.2,46.6,0,1,5,���쓌,3.8,58,,
2018/6/2,13:00:00,6,�쓌,1.5,16.1,57.9,0,0.65,5,���쓌,4.1,16,,
2018/6/2,14:00:00,5,���쓌,1.3,16.3,60.9,0,0.3,3,���k��,3.2,24,,
2018/6/2,15:00:00,6,�쓌,0.5,19.8,50,0,0.58,5,���쓌,2.5,39,,
2018/6/2,16:00:00,5,���쓌,1.6,19.2,45.4,0,0.56,5,���쓌,3.6,32,,
2018/6/2,17:00:00,13,���k��,1.4,20,51.3,0,0.39,7,��쓌,2.9,40,,
2018/6/2,18:00:00,13,���k��,1.8,17.6,56.4,0,0.19,7,��쓌,4.4,6,,
2018/6/2,19:00:00,16,�É�,0.2,14.1,70,0,0.03,7,��쓌,4.9,34,,
2018/6/2,20:00:00,4,��,1.1,12.1,80.9,0,0,3,���k��,6.4,14,,
2018/6/2,21:00:00,5,���쓌,0.3,10.1,84.1,0,0,2,�k��,3.8,18,,
2018/6/2,22:00:00,2,�k��,2.4,12.6,89.7,0,0,2,�k��,5.4,55,,
2018/6/2,23:00:00,3,���k��,1.9,12.3,79,0,0,1,�k�k��,4.3,13,,
2018/6/2,0:00:00,1,�k�k��,0.8,9.5,83.6,0,0,4,��,2.6,0,,
2018/6/3,1:00:00,2,�k��,1.2,12.1,88.2,0,0,3,���k��,3.2,2,,
2018/6/3,2:00:00,14,�k��,1.6,10.3,84.5,0,0,2,�k��,3.4,2,,
2018/6/3,3:00:00,13,���k��,1.7,8.6,87.6,0,0,13,���k��,2.4,55,,
2018/6/3,4:00:00,12,��,2.3,7.6,90.1,0,0,12,��,3,27,,
2018/6/3,5:00:00,12,��,1,11.2,96.2,0,0.08,13,���k��,2.6,14,,
2018/6/3,6:00:00,9,��쐼,1.5,13.3,83.7,0,0.17,8,��,2.4,59,,
2018/6/3,7:00:00,7,��쓌,2.6,14.9,64.5,0,0.4,6,�쓌,4.2,56,,
2018/6/3,8:00:00,6,�쓌,2.2,15.1,64,0,0.49,8,��,3.7,9,,
2018/6/3,9:00:00,5,���쓌,2.3,15.9,64.9,0,0.81,5,���쓌,5,26,,
2018/6/3,10:00:00,3,���k��,2.5,17.3,62.1,0,0.96,5,���쓌,4.6,17,,
2018/6/3,11:00:00,6,�쓌,3.1,16.9,56.5,0,0.94,7,��쓌,4.6,0,,
2018/6/3,12:00:00,7,��쓌,1.9,17,65.4,0,0.62,7,��쓌,4.7,10,,
2018/6/3,13:00:00,7,��쓌,3.4,18.5,54.6,0,0.99,7,��쓌,6.1,57,,
2018/6/3,14:00:00,8,��,2,19.4,57,0,0.9,6,�쓌,4.6,9,,
2018/6/3,15:00:00,7,��쓌,2.4,20.1,61.6,0,0.66,7,��쓌,5.7,35,,
2018/6/3,16:00:00,8,��,4.3,18.8,50.8,0,0.41,9,��쐼,8.1,51,,
2018/6/3,17:00:00,8,��,2.4,16.7,62.5,0,0.24,8,��,5.7,12,,
2018/6/3,18:00:00,8,��,2.7,16.7,62.7,0,0.16,9,��쐼,4.9,58,,
2018/6/3,19:00:00,9,��쐼,2.5,18.3,49.6,0,0.05,10,�쐼,6,15,,
2018/6/3,20:00:00,4,��,1.2,12.9,70.7,0,0,8,��,3.8,34,,
2018/6/3,21:00:00,1,�k�k��,1.5,11.4,82.4,0,0,1,�k�k��,3.2,58,,
2018/6/3,22:00:00,8,��,1.1,11.1,87.5,0,0,7,��쓌,4.5,42,,
2018/6/3,23:00:00,11,���쐼,1.1,7.4,82.7,0,0,7,��쓌,1.7,2,,
2018/6/3,0:00:00,16,�É�,0.2,7.7,89.4,0,0,7,��쓌,7.9,52,,
2018/6/4,1:00:00,1,�k�k��,1.4,6.6,89.9,0,0,1,�k�k��,2,53,,
2018/6/4,2:00:00,14,�k��,0.7,7.3,90.9,0,0,13,���k��,2.6,37,,
2018/6/4,3:00:00,12,��,1.9,6.8,93,0,0,13,���k��,2.9,53,,
2018/6/4,4:00:00,12,��,1.7,5,93.7,0,0,12,��,2.3,28,,
2018/6/4,5:00:00,13,���k��,0.9,8.6,97,0,0.07,13,���k��,2.8,23,,
2018/6/4,6:00:00,12,��,0.4,13.2,80.8,0,0.23,14,�k��,1.9,15,,
2018/6/4,7:00:00,14,�k��,0.3,17.5,60.5,0,0.43,12,��,1.4,12,,
2018/6/4,8:00:00,5,���쓌,1.2,20.8,45,0,0.62,5,���쓌,2.4,45,,
2018/6/4,9:00:00,5,���쓌,2,18.5,54.4,0,0.8,5,���쓌,3.9,30,,
2018/6/4,10:00:00,7,��쓌,1.3,21.3,47.7,0,0.93,7,��쓌,3.9,26,,
2018/6/4,11:00:00,6,�쓌,2.6,23.8,31.7,0,1.02,7,��쓌,4.2,59,,
2018/6/4,12:00:00,6,�쓌,1.2,25.4,34.2,0,1.04,7,��쓌,4.3,0,,
2018/6/4,13:00:00,5,���쓌,2.2,25.4,32.5,0,1,6,�쓌,3.2,47,,
2018/6/4,14:00:00,5,���쓌,2.1,25.1,34.6,0,0.89,5,���쓌,3.4,26,,
2018/6/4,15:00:00,6,�쓌,2.5,20.5,44.4,0,0.75,6,�쓌,3.7,52,,
2018/6/4,16:00:00,5,���쓌,1.6,21.4,41.7,0,0.58,4,��,2.9,45,,
2018/6/4,17:00:00,3,���k��,0.9,21.8,53.1,0,0.38,2,�k��,2.9,16,,
2018/6/4,18:00:00,4,��,2.4,16.3,57.6,0,0.19,4,��,3.8,50,,
2018/6/4,19:00:00,3,���k��,2,13.8,74.3,0,0.04,4,��,3.9,2,,
2018/6/4,20:00:00,2,�k��,2.1,13.4,81,0,0,2,�k��,3,53,,
2018/6/4,21:00:00,13,���k��,0.4,10.4,81.9,0,0,2,�k��,2.6,1,,
2018/6/4,22:00:00,11,���쐼,0.7,10.4,86.4,0,0,12,��,2,44,,
2018/6/4,23:00:00,5,���쓌,0.7,9,88.3,0,0,5,���쓌,1.7,59,,
2018/6/4,0:00:00,2,�k��,1.1,10.1,89.3,0,0,1,�k�k��,2,53,,
2018/6/5,1:00:00,12,��,1.6,8,90.2,0,0,12,��,2.2,59,,
2018/6/5,2:00:00,7.2,��쓌,91.7,0,0,,,,,,,,
2018/6/5,3:00:00,13,���k��,1.5,6.8,92.2,0,0,13,���k��,2.1,51,,
2018/6/5,4:00:00,13,���k��,1.4,6.7,93.3,0,0,12,��,2.5,44,,
2018/6/5,5:00:00,13,���k��,1.6,9.7,96.4,0,0.07,12,��,2.5,39,,
2018/6/5,6:00:00,12,��,0.7,13.2,94.2,0,0.18,12,��,1.6,26,,
2018/6/5,7:00:00,16.5,�k,69.2,0,0.36,,,,,,,,
2018/6/5,8:00:00,6,�쓌,2.5,16.3,56.4,0,0.6,6,�쓌,12.4,12,,
2018/6/5,9:00:00,4,��,2,16.2,70.3,0,0.63,5,���쓌,4.1,13,,
2018/6/5,10:00:00,5,���쓌,2.9,16.9,63.8,0,0.92,5,���쓌,4.7,57,,
2018/6/5,11:00:00,5,���쓌,2.7,16.4,67.4,0,0.89,6,�쓌,4.7,0,,
2018/6/5,12:00:00,5,���쓌,2.6,13.2,77,0,0.7,6,�쓌,4.8,25,,
2018/6/5,13:00:00,4,��,3.4,12.7,81.4,0,0.42,4,��,5,35,,
2018/6/5,14:00:00,3,���k��,3.1,14,79.1,0,0.67,3,���k��,5.2,1,,
2018/6/5,15:00:00,2,�k��,3.6,14.4,79.7,0,0.6,2,�k��,5.1,49,,
2018/6/5,16:00:00,3,���k��,3.6,14.1,84.5,0,0.42,4,��,5.3,31,,
2018/6/5,17:00:00,2,�k��,1.8,15.1,85.3,0,0.22,2,�k��,5.8,2,,
2018/6/5,18:00:00,16,�k,1.6,14.7,83,0,0.13,3,���k��,2.5,4,,
2018/6/5,19:00:00,16,�k,1.8,13.2,89.3,0,0.03,1,�k�k��,4.1,33,,
2018/6/5,20:00:00,1,�k�k��,3.2,12.5,93,0,0,1,�k�k��,4.7,51,,
2018/6/5,21:00:00,16,�k,2.5,12.4,95,0,0,1,�k�k��,4.5,46,,
2018/6/5,22:00:00,15,�k�k��,1.6,12.8,96.2,0,0,15,�k�k��,3.1,39,,
2018/6/5,23:00:00,1,�k�k��,0.7,12.6,96.3,0,0,14,�k��,2.5,16,,
2018/6/5,0:00:00,2,�k��,0.8,12.6,96.4,0,0,2,�k��,1.4,58,,
2018/6/6,1:00:00,2,�k��,0.5,12.7,96.4,0,0,1,�k�k��,1.6,5,,
2018/6/6,2:00:00,7,��쓌,1.4,12.7,95.9,0,0,6,�쓌,2.5,48,,
2018/6/6,3:00:00,5,���쓌,1.8,12.6,95.6,0,0,4,��,2.9,59,,
2018/6/6,4:00:00,12,��,0.6,12.6,95.6,0,0,5,���쓌,3.5,8,,
2018/6/6,5:00:00,15,�k�k��,0.4,13,96.5,0,0.02,1,�k�k��,2.4,24,,
2018/6/6,6:00:00,16,�É�,0.1,14.1,96.3,0,0.08,16,�k,1.9,36,,
2018/6/6,7:00:00,5,���쓌,2,13.9,87.2,0,0.16,5,���쓌,3,44,,
2018/6/6,8:00:00,4,��,2,14,89.4,0,0.18,4,��,3.4,59,,
2018/6/6,9:00:00,4,��,2.4,14.5,86.4,0,0.28,3,���k��,4.2,30,,
2018/6/6,10:00:00,3,���k��,2.8,18.4,75,0,0.82,3,���k��,4.9,30,,
2018/6/6,11:00:00,3,���k��,3.4,20.7,68.5,0,1.04,4,��,5.2,58,,
2018/6/6,12:00:00,5,���쓌,4.8,18.1,71.1,0,1.06,6,�쓌,6.6,50,,
2018/6/6,13:00:00,6,�쓌,3,16.5,72.4,0,1.02,5,���쓌,6.8,8,,
2018/6/6,14:00:00,7,��쓌,2.6,15.8,73.5,0,0.91,8,��,5.3,46,,
2018/6/6,15:00:00,5,���쓌,1.7,17.4,71.2,0,0.76,6,�쓌,4.1,0,,
2018/6/6,16:00:00,5,���쓌,2.4,16.8,77.1,0,0.57,5,���쓌,5.3,35,,
2018/6/6,17:00:00,6,�쓌,1.5,15.4,83.9,0,0.22,6,�쓌,3.6,4,,
2018/6/6,18:00:00,2,�k��,1.1,15.9,84.8,0,0.09,3,���k��,2,59,,
2018/6/6,19:00:00,3,���k��,1.3,15.6,87.1,0,0.02,3,���k��,2.6,24,,
2018/6/6,20:00:00,4,��,0.6,15.1,89.5,0,0,2,�k��,2.8,7,,
2018/6/6,21:00:00,1,�k�k��,1,15,90.2,0,0,16,�k,2,49,,
2018/6/6,22:00:00,1,�k�k��,0.6,14.8,90.8,0,0,16,�k,2.3,5,,
2018/6/6,23:00:00,14,�k��,0.5,14.5,91,0,0,1,�k�k��,2,43,,
2018/6/6,0:00:00,15,�k�k��,0.6,14.3,92.2,0,0,16,�k,1.4,26,,
2018/6/7,1:00:00,16,�É�,0.2,13.7,93,0,0,13,���k��,2.3,24,,
2018/6/7,2:00:00,11,���쐼,0.5,13.5,93.7,0,0,9,��쐼,1.4,14,,
2018/6/7,3:00:00,12,��,1.4,12.6,93.7,0,0,12,��,1.9,58,,
2018/6/7,4:00:00,14,�k��,0.8,11.2,93,0,0,12,��,1.6,0,,
2018/6/7,5:00:00,16,�É�,0.1,11.6,93.9,0,0.05,12,��,2.6,53,,
2018/6/7,6:00:00,6,�쓌,1.3,12.9,89.5,0,0.14,5,���쓌,2,57,,
2018/6/7,7:00:00,8,��,2.1,12.9,90.4,0,0.21,8,��,3.2,57,,
2018/6/7,8:00:00,10,�쐼,0.8,13.8,84.9,0,0.38,7,��쓌,3.3,7,,
2018/6/7,9:00:00,6,�쓌,1.6,14.6,71.2,0,0.69,6,�쓌,3.2,43,,
2018/6/7,10:00:00,6,�쓌,2.8,15.8,66.6,0,0.91,5,���쓌,4,55,,
2018/6/7,11:00:00,6,�쓌,2.9,16.1,68.9,0,1,6,�쓌,5,13,,
2018/6/7,12:00:00,5,���쓌,3.1,15.5,68.5,0,0.99,5,���쓌,4.7,54,,
2018/6/7,13:00:00,5,���쓌,2.8,15.7,72.6,0,0.88,5,���쓌,5.1,23,,
2018/6/7,14:00:00,3,���k��,2.6,16.2,75,0,0.75,5,���쓌,4.9,1,,
2018/6/7,15:00:00,3,���k��,3,15.4,74.8,0,0.66,3,���k��,4.8,34,,
2018/6/7,16:00:00,4,��,2.2,16.4,74.8,0,0.5,4,��,4.3,29,,
2018/6/7,17:00:00,6,�쓌,1.3,17.4,64.5,0,0.39,5,���쓌,2.6,2,,
2018/6/7,18:00:00,6,�쓌,0.8,14.9,77.7,0,0.15,6,�쓌,3,7,,
2018/6/7,19:00:00,4,��,2.5,14.2,86.3,0,0.03,4,��,3.8,56,,
2018/6/7,20:00:00,12,��,0.4,12.5,88.8,0,0,14,�k��,4.5,3,,
2018/6/7,21:00:00,14,�k��,0.3,12.9,92.2,0,0,4,��,3,37,,
2018/6/7,22:00:00,16,�É�,0.2,12.3,92.6,0,0,12,��,2.1,24,,
2018/6/7,23:00:00,12,��,0.9,13.9,93.9,0,0,11,���쐼,2.5,45,,
2018/6/7,0:00:00,13,���k��,1.2,16.1,94.4,0,0,13,���k��,2.7,48,,
2018/6/8,1:00:00,16,�k,1.3,14.7,83.6,0,0,12,��,4,43,,
2018/6/8,2:00:00,3,���k��,1.3,14.2,87.7,0,0,5,���쓌,3,6,,
2018/6/8,3:00:00,6,�쓌,0.7,13.4,90.4,0,0,3,���k��,3.1,3,,
2018/6/8,4:00:00,3,���k��,1.1,14.4,92.7,0,0,2,�k��,4.2,48,,
2018/6/8,5:00:00,4,��,0.3,14,91.5,0,0.03,4,��,3.3,9,,
2018/6/8,6:00:00,1,�k�k��,0.8,15.4,90.2,0,0.11,1,�k�k��,1.8,48,,
2018/6/8,7:00:00,4,��,1.9,17.7,76.5,0,0.26,2,�k��,2.9,32,,
2018/6/8,8:00:00,3,���k��,3.5,15.6,79.4,0,0.22,4,��,5.8,14,,
2018/6/8,9:00:00,3,���k��,5,15.3,83,0,0.26,3,���k��,7.1,52,,
2018/6/8,10:00:00,3,���k��,4.6,16.5,83,0,0.36,2,�k��,7.2,52,,
2018/6/8,11:00:00,3,���k��,3.1,15.2,81.6,0,0.43,4,��,7.5,15,,
2018/6/8,12:00:00,5,���쓌,3.8,15,81.3,0,0.27,2,�k��,7.1,28,,
2018/6/8,13:00:00,3,���k��,3.8,15.6,81.8,0,0.48,3,���k��,7.4,34,,
2018/6/8,14:00:00,6,�쓌,3.7,14,78,0,0.46,4,��,8,37,,
2018/6/8,15:00:00,5,���쓌,3.1,13.3,84.6,0,0.16,3,���k��,5.8,43,,
2018/6/8,16:00:00,4,��,3.7,12.3,88.5,0,0.08,5,���쓌,6.4,30,,
2018/6/8,17:00:00,4,��,5.6,10.7,91.8,0,0.04,4,��,8.2,58,,
2018/6/8,18:00:00,3,���k��,2.5,10.5,94.8,3,0.01,4,��,7.3,0,,
2018/6/8,19:00:00,3,���k��,2.6,9.8,94.2,5,0,4,��,7.1,42,,
2018/6/8,20:00:00,4,��,5.6,8.9,93.8,6,0,4,��,9,53,,
2018/6/8,21:00:00,4,��,4.3,8.8,94.4,1,0,4,��,6.6,47,,
2018/6/8,22:00:00,3,���k��,4.4,8.5,94.7,1,0,4,��,7.2,56,,
2018/6/8,23:00:00,3,���k��,2.1,8.3,94.3,1.5,0,2,�k��,5,22,,
2018/6/8,0:00:00,3,���k��,3,7.9,94.5,2,0,3,���k��,5.4,41,,
2018/6/9,1:00:00,3,���k��,2.5,7.7,94.6,0,0,4,��,6.7,34,,
2018/6/9,2:00:00,3,���k��,2.1,7.7,94.8,1.5,0,3,���k��,4.3,4,,
2018/6/9,3:00:00,2,�k��,1,7.7,95.6,0.5,0,2,�k��,2.3,16,,
2018/6/9,4:00:00,16,�k,1,7.4,94.7,0,0,3,���k��,3.3,8,,
2018/6/9,5:00:00,16,�k,1.5,7.5,94.3,0.5,0.02,16,�k,2.9,59,,
2018/6/9,6:00:00,1,�k�k��,3.4,7.8,91.6,0,0.09,1,�k�k��,6,59,,
2018/6/9,7:00:00,1,�k�k��,3.1,8.7,88.2,0,0.18,1,�k�k��,5.3,58,,
2018/6/9,8:00:00,13,���k��,2.1,9.3,83,0,0.17,1,�k�k��,4.4,0,,
2018/6/9,9:00:00,14,�k��,1.8,10.4,76.7,0,0.37,13,���k��,4,39,,
2018/6/9,10:00:00,13,���k��,1.5,10.7,73.7,0,0.37,14,�k��,7.4,3,,
2018/6/9,11:00:00,16,�k,1.6,10.7,72.8,0,0.25,15,�k�k��,3.3,30,,
2018/6/9,12:00:00,4,��,3.8,9.5,84.1,0,0.23,4,��,4.9,53,,
2018/6/9,13:00:00,4,��,3.5,9.4,89.2,0,0.26,4,��,5.3,58,,
2018/6/9,14:00:00,4,��,2.6,9.8,84.4,0,0.28,4,��,5.7,10,,
2018/6/9,15:00:00,4,��,2,11,77.2,0,0.35,3,���k��,4.3,15,,
2018/6/9,16:00:00,5,���쓌,2.8,9.5,78.2,0,0.18,4,��,4.7,25,,
2018/6/9,17:00:00,4,��,2.4,8.8,86.9,0,0.08,4,��,4.4,14,,
2018/6/9,18:00:00,3,���k��,1.9,8.6,90,0,0.04,4,��,3.4,1,,
2018/6/9,19:00:00,3,���k��,0.5,8.3,91.9,0,0.01,3,���k��,3.6,1,,
2018/6/9,20:00:00,13,���k��,0.7,8,92.9,0,0,13,���k��,2.1,28,,
2018/6/9,21:00:00,2,�k��,0.9,8,93.4,0,0,10,�쐼,3.7,27,,
2018/6/9,22:00:00,4,��,1,7.5,92.5,0.5,0,4,��,3.7,2,,
2018/6/9,23:00:00,3,���k��,1.8,7.3,93.5,0.5,0,4,��,2.8,59,,
2018/6/9,0:00:00,1,�k�k��,0.7,7.1,93.5,0,0,3,���k��,2.7,10,,
2018/6/10,1:00:00,14,�k��,1,6.7,93.9,0.5,0,2,�k��,1.6,9,,
2018/6/10,2:00:00,16,�É�,0,4.6,92.7,0,0,14,�k��,1.6,32,,
2018/6/10,3:00:00,13,���k��,1.1,5.4,93.4,0,0,13,���k��,2.2,23,,
2018/6/10,4:00:00,13,���k��,0.8,5.2,94.2,0,0,12,��,1.5,49,,
2018/6/10,5:00:00,14,�k��,0.8,5.9,95.1,0,0.06,13,���k��,2.3,24,,
2018/6/10,6:00:00,14,�k��,0.8,7.8,84.6,0,0.2,13,���k��,1.9,42,,
2018/6/10,7:00:00,8,��,1.2,9.4,67.2,0,0.33,9,��쐼,7.5,29,,
2018/6/10,8:00:00,6,�쓌,1.9,10.1,61,0,0.54,10,�쐼,3.4,28,,
2018/6/10,9:00:00,6,�쓌,2.2,10.1,67.5,0,0.48,6,�쓌,4.4,40,,
2018/6/10,10:00:00,6,�쓌,2.9,10.2,67.9,0,0.58,7,��쓌,5.2,57,,
2018/6/10,11:00:00,8,��,3.2,11.7,60.4,0,0.97,6,�쓌,5.8,46,,
2018/6/10,12:00:00,8,��,3.8,11.5,64.8,0,0.88,8,��,6.8,44,,
2018/6/10,13:00:00,7,��쓌,4.3,11.1,65.1,0,0.7,6,�쓌,8.1,42,,
2018/6/10,14:00:00,7,��쓌,4,11.8,64.8,0,0.75,8,��,7.2,11,,
2018/6/10,15:00:00,8,��,3.8,11,66.2,0,0.68,6,�쓌,7.1,12,,
2018/6/10,16:00:00,7,��쓌,3.9,11.2,67.3,0,0.52,7,��쓌,7.2,51,,
2018/6/10,17:00:00,7,��쓌,3.4,11,72.8,0,0.34,8,��,7.9,23,,
2018/6/10,18:00:00,7,��쓌,3.2,10.3,76.6,0,0.18,8,��,7.9,40,,
2018/6/10,19:00:00,7,��쓌,2.8,9.7,82.2,0,0.05,8,��,6.4,38,,
2018/6/10,20:00:00,8,��,2.9,9.7,87.2,0,0,7,��쓌,5.6,55,,
2018/6/10,21:00:00,8,��,2.9,9.6,89.3,0,0,7,��쓌,6.6,6,,
2018/6/10,22:00:00,10,�쐼,2.1,9.7,88.4,0,0,8,��,5.8,33,,
2018/6/10,23:00:00,10,�쐼,2.1,9.1,86.1,0,0,9,��쐼,6.2,49,,
2018/6/10,0:00:00,13,���k��,0.7,5.7,83.6,0,0,10,�쐼,6,32,,
2018/6/11,1:00:00,13,���k��,1.8,4.5,89,0,0,13,���k��,2.8,29,,
2018/6/11,2:00:00,13,���k��,1.3,6.8,95,0,0,13,���k��,3.3,7,,
2018/6/11,3:00:00,12,��,1.3,7.2,96,0,0,13,���k��,2.2,12,,
2018/6/11,4:00:00,14,�k��,0.9,7.7,96,0,0,13,���k��,2.4,0,,
2018/6/11,5:00:00,15,�k�k��,1,8.5,95.4,0,0.02,15,�k�k��,2.2,53,,
2018/6/11,6:00:00,14,�k��,1.6,9,94.4,0,0.06,14,�k��,2.4,53,,
2018/6/11,7:00:00,14,�k��,0.7,9.8,93.4,0,0.11,14,�k��,2.2,19,,
2018/6/11,8:00:00,15,�k�k��,0.5,10.4,86.4,0,0.16,1,�k�k��,7,0,,
2018/6/11,9:00:00,10.7,�쐼,88,0,0.14,,,,,,,,
2018/6/11,10:00:00,3,���k��,2.2,10.8,90.4,0,0.19,3,���k��,3,50,,
2018/6/11,11:00:00,3,���k��,2.2,11,92.1,0,0.18,3,���k��,4.1,35,,
2018/6/11,12:00:00,4,��,1.4,11.7,91.7,0,0.16,4,��,2.8,18,,
2018/6/11,13:00:00,4,��,1.6,12,87.6,0,0.16,4,��,2.7,58,,
2018/6/11,14:00:00,3,���k��,2.5,12,87,0,0.17,3,���k��,3.3,55,,
2018/6/11,15:00:00,3,���k��,2.2,12.1,86,0,0.17,2,�k��,3.8,36,,
2018/6/11,16:00:00,3,���k��,2.3,11.9,87.9,0,0.1,2,�k��,3.7,7,,
2018/6/11,17:00:00,2,�k��,2.5,11.7,88.9,0,0.06,2,�k��,4,56,,
2018/6/11,18:00:00,3,���k��,1.9,11.6,90.1,0,0.04,3,���k��,3.7,8,,
2018/6/11,19:00:00,1,�k�k��,1.6,11.4,90.7,0,0.01,2,�k��,2.7,32,,
2018/6/11,20:00:00,1,�k�k��,1.9,11.3,90.7,0,0,1,�k�k��,2.9,57,,
2018/6/11,21:00:00,1,�k�k��,2.5,11.3,90.5,0,0,1,�k�k��,4.3,57,,
2018/6/11,22:00:00,1,�k�k��,1.8,11.3,91.3,0,0,2,�k��,3.5,3,,
2018/6/11,23:00:00,2,�k��,1.8,11.2,91.6,0,0,2,�k��,4.2,36,,
2018/6/11,0:00:00,2,�k��,4.2,11,93.1,0,0,2,�k��,7.4,58,,
2018/6/12,1:00:00,2,�k��,4.2,11.1,93,0,0,2,�k��,7,55,,
2018/6/12,2:00:00,2,�k��,4.7,11,91.8,0,0,2,�k��,8.2,15,,
2018/6/12,3:00:00,1,�k�k��,3.1,10.7,92.3,0,0,2,�k��,6.1,17,,
2018/6/12,4:00:00,16,�k,2.3,10.6,92.4,0.5,0,16,�k,5.2,32,,
2018/6/12,5:00:00,16,�k,2.3,10.7,92.5,0,0.01,1,�k�k��,4.1,49,,
2018/6/12,6:00:00,2,�k��,4.1,10.5,91.6,0,0.02,2,�k��,7.5,54,,
2018/6/12,7:00:00,1,�k�k��,4.1,10.7,88.2,0.5,0.09,3,���k��,8,30,,
2018/6/12,8:00:00,1,�k�k��,3.8,9.9,84.9,0,0.09,1,�k�k��,8.3,16,,
2018/6/12,9:00:00,16,�k,3.2,9.6,89.2,0.5,0.07,16,�k,6.4,32,,
2018/6/12,10:00:00,15,�k�k��,2.5,9.2,91.8,4,0.07,1,�k�k��,6.4,5,,
2018/6/12,11:00:00,16,�k,3.7,8.7,91.9,7,0.03,16,�k,7.4,53,,
2018/6/12,12:00:00,16,�k,3.6,8.6,92.6,8,0.06,15,�k�k��,8.8,53,,
2018/6/12,13:00:00,15,�k�k��,3.6,8.4,91.9,3.5,0.09,16,�k,9.8,28,,
2018/6/12,14:00:00,14,�k��,3.8,8.8,94.2,3.5,0.13,14,�k��,7.9,11,,
2018/6/12,15:00:00,15,�k�k��,3.2,9,94,4,0.16,14,�k��,8.7,24,,
2018/6/12,16:00:00,15,�k�k��,2.5,8.6,91.1,1,0.16,14,�k��,7.4,28,,
2018/6/12,17:00:00,15,�k�k��,2.4,8.2,92.2,1,0.08,14,�k��,6.2,39,,
2018/6/12,18:00:00,16,�k,2.3,7.8,93,1,0.04,16,�k,5.1,27,,
2018/6/12,19:00:00,15,�k�k��,1.4,7.6,93.4,0.5,0.02,16,�k,5.4,45,,
2018/6/12,20:00:00,1,�k�k��,2.2,7.4,94,0.5,0,15,�k�k��,4.1,7,,
2018/6/12,21:00:00,14,�k��,2.9,7,94.2,1,0,14,�k��,5.4,47,,
2018/6/12,22:00:00,14,�k��,2.7,6.9,94.9,0,0,13,���k��,5.5,33,,
2018/6/12,23:00:00,14,�k��,3,6.9,95,0,0,14,�k��,5.1,30,,
2018/6/12,0:00:00,14,�k��,2.5,6.9,95,0,0,14,�k��,5,9,,
2018/6/13,1:00:00,16,�k,2.2,6.8,95.1,0,0,16,�k,4.6,56,,
2018/6/13,2:00:00,16,�k,1.9,6.7,93.6,0,0,1,�k�k��,4.5,46,,
2018/6/13,3:00:00,16,�k,1.9,6.6,92.4,0,0,16,�k,4.7,3,,
2018/6/13,4:00:00,16,�k,1.5,6.6,91.5,0,0,14,�k��,4.1,24,,
2018/6/13,5:00:00,13,���k��,2.1,6.9,91.9,0,0.03,13,���k��,3.2,59,,
2018/6/13,6:00:00,14,�k��,2.1,7.8,91.9,0,0.1,14,�k��,3.7,53,,
2018/6/13,7:00:00,1,�k�k��,2.3,9.3,78.4,0,0.24,16,�k,4.6,56,,
2018/6/13,8:00:00,16,�k,2.7,10.1,74.3,0,0.38,1,�k�k��,6.4,21,,
2018/6/13,9:00:00,3,���k��,2.5,10.5,73.5,0,0.37,2,�k��,5,4,,
2018/6/13,10:00:00,5,���쓌,1.5,10.4,65.3,0,0.45,15,�k�k��,4.6,17,,
2018/6/13,11:00:00,5,���쓌,2.7,9.8,74,0,0.33,5,���쓌,4.1,58,,
2018/6/13,12:00:00,6,�쓌,2.5,9.9,66.9,0,0.4,5,���쓌,4.4,2,,
2018/6/13,13:00:00,6,�쓌,2.1,10.1,69.6,0,0.29,6,�쓌,3.8,6,,
2018/6/13,14:00:00,6,�쓌,1.6,10.3,69.8,0,0.3,6,�쓌,3.4,7,,
2018/6/13,15:00:00,7,��쓌,1.3,10.3,64.2,0,0.3,6,�쓌,3.4,3,,
2018/6/13,16:00:00,8,��,1.3,10.9,67.8,0,0.31,7,��쓌,3.3,27,,
2018/6/13,17:00:00,9,��쐼,2.3,10,71,0,0.15,9,��쐼,3.5,54,,
2018/6/13,18:00:00,9,��쐼,1.7,9.6,78.2,0,0.07,9,��쐼,3.4,8,,
2018/6/13,19:00:00,9,��쐼,2.5,9.2,84.3,0,0.01,9,��쐼,3.6,47,,
2018/6/13,20:00:00,11,���쐼,1.8,9,89.4,0,0,9,��쐼,3.1,14,,
2018/6/13,21:00:00,11,���쐼,1.3,9,91.2,0,0,11,���쐼,2.8,26,,
2018/6/13,22:00:00,1,�k�k��,2,9.1,91.4,0,0,1,�k�k��,3.1,52,,
2018/6/13,23:00:00,1,�k�k��,2.2,8.4,92.7,0,0,2,�k��,4.2,59,,
2018/6/13,0:00:00,1,�k�k��,1.8,7.9,93.3,0.5,0,2,�k��,4.1,0,,
2018/6/14,1:00:00,13,���k��,0.9,7.6,92.6,0,0,14,�k��,7.8,20,,
2018/6/14,2:00:00,12,��,1.6,7.3,91.6,0,0,14,�k��,2.3,39,,
2018/6/14,3:00:00,14,�k��,1,7.1,89.7,0,0,13,���k��,2.5,11,,
2018/6/14,4:00:00,13,���k��,0.6,7,91.4,0,0,13,���k��,2,47,,
2018/6/14,5:00:00,15,�k�k��,0.8,7.2,90.1,0,0.03,14,�k��,2.5,31,,
2018/6/14,6:00:00,1,�k�k��,2.2,8.2,75,0,0.2,1,�k�k��,4.2,45,,
2018/6/14,7:00:00,16,�k,2.8,10.6,68.6,0,0.42,15,�k�k��,5.8,47,,
2018/6/14,8:00:00,15,�k�k��,1.9,11.6,60.8,0,0.64,15,�k�k��,7.2,6,,
2018/6/14,9:00:00,15,�k�k��,3.2,13.3,52.9,0,0.83,1,�k�k��,6,56,,
2018/6/14,10:00:00,16,�k,1.9,13.9,52.5,0,0.63,13,���k��,6.1,21,,
2018/6/14,11:00:00,15,�k�k��,3.4,15.6,47.7,0,0.95,16,�k,7,42,,
2018/6/14,12:00:00,2,�k��,2.4,15,47.8,0,0.7,15,�k�k��,5.7,13,,
2018/6/14,13:00:00,8,��,2.9,14.1,61.9,0,0.6,10,�쐼,6.1,27,,
2018/6/14,14:00:00,8,��,4.1,12.1,61.3,0,0.51,8,��,6.4,48,,
2018/6/14,15:00:00,8,��,3.7,12.7,62.1,0,0.44,8,��,6.1,52,,
2018/6/14,16:00:00,8,��,2.4,12.3,60,0,0.39,8,��,5.8,0,,
2018/6/14,17:00:00,9,��쐼,1.1,11.6,62.8,0,0.13,8,��,3.4,17,,
2018/6/14,18:00:00,10,�쐼,0.9,11,69.6,0,0.06,9,��쐼,2.3,5,,
2018/6/14,19:00:00,2,�k��,1.1,10.6,76.2,0,0.02,1,�k�k��,1.9,56,,
2018/6/14,20:00:00,1,�k�k��,2,10,66.5,0,0,1,�k�k��,4,37,,
2018/6/14,21:00:00,1,�k�k��,1.7,9.4,69.9,0,0,1,�k�k��,3.1,51,,
2018/6/14,22:00:00,2,�k��,2.3,8.8,69.6,0,0,1,�k�k��,5.8,11,,
2018/6/14,23:00:00,16,�k,1.5,8.3,70.4,0,0,16,�k,3.5,33,,
2018/6/14,0:00:00,15,�k�k��,1.1,7.1,73,0,0,16,�k,4.3,33,,
2018/6/15,1:00:00,14,�k��,1.5,5.6,80.1,0,0,13,���k��,2.6,13,,
2018/6/15,2:00:00,15,�k�k��,0.9,5.4,83.1,0,0,14,�k��,3.1,35,,
2018/6/15,3:00:00,14,�k��,1.5,4.1,82.2,0,0,14,�k��,2.9,55,,
2018/6/15,4:00:00,15,�k�k��,2.2,5.5,84.1,0,0,15,�k�k��,5.9,1,,
2018/6/15,5:00:00,14,�k��,2.4,6.2,81.3,0,0.04,15,�k�k��,6.4,4,,
2018/6/15,6:00:00,14,�k��,2.9,8.9,76.6,0,0.17,15,�k�k��,5.9,16,,
2018/6/15,7:00:00,16,�k,4.3,9.8,64.6,0,0.33,16,�k,7.4,59,,
2018/6/15,8:00:00,14,�k��,3.3,11,62.6,0,0.46,1,�k�k��,8.7,19,,
2018/6/15,9:00:00,16,�k,3.8,11.5,60.4,0,0.48,16,�k,8,46,,
2018/6/15,10:00:00,1,�k�k��,4.1,12.6,59.3,0,0.52,1,�k�k��,7.6,50,,
2018/6/15,11:00:00,15,�k�k��,3.3,13.2,59.9,0,0.57,1,�k�k��,6.6,12,,
2018/6/15,12:00:00,1,�k�k��,2.7,13.8,56.2,0,0.51,14,�k��,5.8,7,,
2018/6/15,13:00:00,5,���쓌,3.8,11.8,64.7,0,0.4,4,��,6.1,36,,
2018/6/15,14:00:00,5,���쓌,3.1,11.6,66.5,0,0.42,5,���쓌,6.2,37,,
2018/6/15,15:00:00,4,��,2.2,11.4,70.2,0,0.24,5,���쓌,5.4,5,,
2018/6/15,16:00:00,4,��,2.2,11.2,72.1,0,0.19,5,���쓌,4.5,4,,
2018/6/15,17:00:00,5,���쓌,1,10.8,74.5,0,0.1,4,��,3.8,16,,
2018/6/15,18:00:00,4,��,1.1,10.5,76.5,0,0.06,4,��,1.9,1,,
2018/6/15,19:00:00,16,�É�,0.1,10,81.9,0,0.02,8,��,1.7,52,,
2018/6/15,20:00:00,1,�k�k��,0.7,9.7,87.1,0,0,14,�k��,1.9,39,,
2018/6/15,21:00:00,3,���k��,1.9,9.7,84.2,0,0,3,���k��,3.5,41,,
2018/6/15,22:00:00,3,���k��,3.3,9,81.7,0,0,3,���k��,5.2,59,,
2018/6/15,23:00:00,3,���k��,4,8.5,83.2,0,0,2,�k��,6.7,33,,
2018/6/15,0:00:00,3,���k��,3.9,8.1,85.1,0,0,3,���k��,6.7,18,,
2018/6/16,1:00:00,2,�k��,2.5,7.9,85.7,0,0,2,�k��,5.5,5,,
2018/6/16,2:00:00,2,�k��,3.2,7.6,85.3,0,0,3,���k��,5.2,30,,
2018/6/16,3:00:00,3,���k��,3.6,7.3,83.7,0,0,2,�k��,5.6,57,,
2018/6/16,4:00:00,2,�k��,2.9,7,84.5,0,0,3,���k��,5.8,2,,
2018/6/16,5:00:00,2,�k��,2.4,6.9,84.4,0,0.02,2,�k��,5.8,2,,
2018/6/16,6:00:00,2,�k��,2.1,7.2,83.7,0,0.06,2,�k��,3.6,59,,
2018/6/16,7:00:00,3,���k��,3.4,7.4,80.3,0,0.12,3,���k��,5.7,44,,
2018/6/16,8:00:00,3,���k��,3.1,7.9,77.4,0,0.21,3,���k��,5.5,29,,
2018/6/16,9:00:00,4,��,3.8,8.2,75.4,0,0.33,3,���k��,6.4,58,,
2018/6/16,10:00:00,3,���k��,3.3,8.6,71.9,0,0.43,4,��,5.9,8,,
2018/6/16,11:00:00,3,���k��,3.1,9,70.3,0,0.51,5,���쓌,6.1,48,,
2018/6/16,12:00:00,4,��,2.8,10,69.1,0,0.56,5,���쓌,5.5,18,,
2018/6/16,13:00:00,4,��,4,10.7,67.7,0,0.76,4,��,6,50,,
2018/6/16,14:00:00,6,�쓌,3.8,10.3,67.1,0,0.76,5,���쓌,6.7,51,,
2018/6/16,15:00:00,6,�쓌,3.6,10.4,66.3,0,0.76,6,�쓌,7,29,,
2018/6/16,16:00:00,6,�쓌,4,10.4,67.6,0,0.57,5,���쓌,6.7,2,,
2018/6/16,17:00:00,7,��쓌,3,9.2,65.8,0,0.42,7,��쓌,6.1,42,,
2018/6/16,18:00:00,7,��쓌,2.4,9,73.1,0,0.18,6,�쓌,4.8,0,,
2018/6/16,19:00:00,7,��쓌,1.7,8.4,77.3,0,0.03,8,��,4.3,12,,
2018/6/16,20:00:00,8,��,1,8.2,80.9,0,0,8,��,3.4,34,,
2018/6/16,21:00:00,9,��쐼,1.2,8.2,81,0,0,8,��,2.9,57,,
2018/6/16,22:00:00,7,��쓌,0.3,8.2,82.8,0,0,7,��쓌,3.3,25,,
2018/6/16,23:00:00,16,�É�,0.2,8,86.3,0,0,10,�쐼,4.7,53,,
2018/6/16,0:00:00,16,�É�,0.1,7.9,87,0,0,9,��쐼,2.7,18,,
2018/6/17,1:00:00,7,��쓌,1,8,84.3,0,0,14,�k��,2.1,21,,
2018/6/17,2:00:00,10,�쐼,0.7,7.7,84.7,0,0,7,��쓌,1.5,30,,
2018/6/17,3:00:00,7.6,��쓌,86.7,0,0,,,,,,,,
2018/6/17,4:00:00,10,�쐼,0.8,7.5,84.9,0,0,12,��,2.6,6,,
2018/6/17,5:00:00,11,���쐼,0.9,7.8,85.7,0,0.02,9,��쐼,2,4,,
2018/6/17,6:00:00,7,��쓌,1,8.4,80.7,0,0.06,11,���쐼,2.7,27,,
2018/6/17,7:00:00,8,��,2.4,8.9,75.9,0,0.18,8,��,4.3,57,,
2018/6/17,8:00:00,7,��쓌,2.7,9.3,77.8,0,0.24,8,��,5,12,,
2018/6/17,9:00:00,8,��,3.2,9.4,73.7,0,0.32,8,��,6.6,53,,
2018/6/17,10:00:00,7,��쓌,3.1,10.2,66.1,0,0.48,8,��,5.5,23,,